Time,TemperatureF,DewpointF,PressureIn,WindDirection,WindDirectionDegrees,WindSpeedMPH,WindSpeedGustMPH,Humidity,HourlyPrecipIn,Conditions,Clouds,dailyrainin,SoftwareType,DateUTC
2013-01-22 00:02:00,30.0,20.0,29.84,WNW,300,9.0,22.0,66,-99.99,,,-99.99,,2013-01-22 05:02:00,
2013-01-22 00:11:00,29.0,20.0,29.84,North,0,0.0,4.0,68,-99.99,,,-99.99,,2013-01-22 05:11:00,
2013-01-22 00:22:00,29.0,20.0,29.84,North,0,0.0,4.0,68,-99.99,,,-99.99,,2013-01-22 05:22:00,
2013-01-22 00:32:00,29.0,20.0,29.84,North,0,0.0,4.0,69,-99.99,,,-99.99,,2013-01-22 05:32:00,
2013-01-22 00:42:00,29.0,20.0,29.84,North,0,0.0,4.0,69,-99.99,,,-99.99,,2013-01-22 05:42:00,
2013-01-22 00:52:00,29.0,20.0,29.84,North,0,0.0,4.0,68,-99.99,,,-99.99,,2013-01-22 05:52:00,
2013-01-22 01:02:00,29.0,20.0,29.84,North,0,0.0,4.0,68,-99.99,,,-99.99,,2013-01-22 06:02:00,
2013-01-22 01:11:00,29.0,18.0,29.83,WNW,290,16.0,25.0,65,-99.99,,,-99.99,,2013-01-22 06:11:00,
2013-01-22 01:22:00,29.0,18.0,29.83,WNW,290,16.0,25.0,65,-99.99,,,-99.99,,2013-01-22 06:22:00,
2013-01-22 01:32:00,29.0,18.0,29.83,WNW,290,16.0,25.0,65,-99.99,,,-99.99,,2013-01-22 06:32:00,
2013-01-22 01:42:00,28.0,18.0,29.83,WNW,300,18.0,27.0,64,-99.99,,,-99.99,,2013-01-22 06:42:00,
2013-01-22 01:52:00,28.0,15.0,29.84,NW,320,18.0,29.0,58,-99.99,,,-99.99,,2013-01-22 06:52:00,
2013-01-22 02:02:00,28.0,15.0,29.84,NW,320,18.0,29.0,58,-99.99,,,-99.99,,2013-01-22 07:02:00,
2013-01-22 02:11:00,27.0,14.0,29.85,NW,310,18.0,25.0,57,-99.99,,,-99.99,,2013-01-22 07:11:00,
2013-01-22 02:22:00,27.0,14.0,29.85,NW,310,18.0,25.0,57,-99.99,,,-99.99,,2013-01-22 07:22:00,
2013-01-22 02:32:00,27.0,14.0,29.85,NW,310,18.0,25.0,57,-99.99,,,-99.99,,2013-01-22 07:32:00,
2013-01-22 02:42:00,27.0,13.0,29.86,NW,310,18.0,27.0,55,-99.99,,,-99.99,,2013-01-22 07:42:00,
2013-01-22 02:52:00,27.0,13.0,29.86,NW,310,18.0,25.0,54,-99.99,,,-99.99,,2013-01-22 07:52:00,
2013-01-22 03:01:00,27.0,13.0,29.86,NW,310,18.0,25.0,54,-99.99,,,-99.99,,2013-01-22 08:01:00,
2013-01-22 03:11:00,27.0,13.0,29.87,WNW,290,18.0,25.0,54,-99.99,,,-99.99,,2013-01-22 08:11:00,
2013-01-22 03:22:00,27.0,13.0,29.87,WNW,290,18.0,25.0,54,-99.99,,,-99.99,,2013-01-22 08:22:00,
2013-01-22 03:32:00,27.0,13.0,29.87,WNW,290,18.0,25.0,54,-99.99,,,-99.99,,2013-01-22 08:32:00,
2013-01-22 03:42:00,26.0,13.0,29.87,WNW,300,18.0,27.0,56,-99.99,,,-99.99,,2013-01-22 08:42:00,
2013-01-22 03:52:00,26.0,12.0,29.87,WNW,290,18.0,29.0,55,-99.99,,,-99.99,,2013-01-22 08:52:00,
2013-01-22 04:02:00,26.0,12.0,29.87,WNW,290,18.0,29.0,55,-99.99,,,-99.99,,2013-01-22 09:02:00,
2013-01-22 04:11:00,26.0,12.0,29.87,WNW,290,18.0,29.0,55,-99.99,,,-99.99,,2013-01-22 09:11:00,
2013-01-22 04:22:00,26.0,12.0,29.87,WNW,290,18.0,29.0,55,-99.99,,,-99.99,,2013-01-22 09:22:00,
2013-01-22 04:32:00,25.0,12.0,29.88,WNW,290,20.0,31.0,56,-99.99,,,-99.99,,2013-01-22 09:32:00,
2013-01-22 04:42:00,25.0,12.0,29.88,WNW,290,20.0,31.0,56,-99.99,,,-99.99,,2013-01-22 09:42:00,
2013-01-22 04:52:00,25.0,12.0,29.88,WNW,290,22.0,36.0,56,-99.99,,,-99.99,,2013-01-22 09:52:00,
2013-01-22 05:01:00,25.0,12.0,29.88,WNW,290,22.0,36.0,56,-99.99,,,-99.99,,2013-01-22 10:01:00,
2013-01-22 05:11:00,25.0,13.0,29.89,WNW,290,20.0,31.0,59,-99.99,,,-99.99,,2013-01-22 10:11:00,
2013-01-22 05:22:00,25.0,13.0,29.89,WNW,290,20.0,31.0,59,-99.99,,,-99.99,,2013-01-22 10:22:00,
2013-01-22 05:32:00,24.0,12.0,29.90,WNW,290,20.0,27.0,58,-99.99,,,-99.99,,2013-01-22 10:32:00,
2013-01-22 05:42:00,24.0,12.0,29.90,WNW,290,20.0,27.0,58,-99.99,,,-99.99,,2013-01-22 10:42:00,
2013-01-22 05:52:00,24.0,13.0,29.91,WNW,290,22.0,34.0,60,-99.99,,,-99.99,,2013-01-22 10:52:00,
2013-01-22 06:01:00,24.0,13.0,29.91,WNW,290,22.0,34.0,60,-99.99,,,-99.99,,2013-01-22 11:01:00,
2013-01-22 06:11:00,24.0,13.0,29.92,WNW,290,25.0,34.0,61,-99.99,,,-99.99,,2013-01-22 11:11:00,
2013-01-22 06:22:00,24.0,13.0,29.92,WNW,290,25.0,34.0,61,-99.99,,,-99.99,,2013-01-22 11:22:00,
2013-01-22 06:32:00,24.0,13.0,29.93,WNW,300,22.0,34.0,61,-99.99,,,-99.99,,2013-01-22 11:32:00,
2013-01-22 06:42:00,24.0,13.0,29.93,WNW,300,22.0,34.0,61,-99.99,,,-99.99,,2013-01-22 11:42:00,
2013-01-22 06:52:00,24.0,13.0,29.94,NW,310,22.0,31.0,62,-99.99,,,-99.99,,2013-01-22 11:52:00,
2013-01-22 07:02:00,24.0,13.0,29.94,NW,310,22.0,31.0,62,-99.99,,,-99.99,,2013-01-22 12:02:00,
2013-01-22 07:11:00,23.0,13.0,29.95,WNW,300,22.0,31.0,63,-99.99,,,-99.99,,2013-01-22 12:11:00,
2013-01-22 07:22:00,23.0,13.0,29.95,WNW,300,22.0,31.0,63,-99.99,,,-99.99,,2013-01-22 12:22:00,
2013-01-22 07:32:00,23.0,13.0,29.96,NW,310,20.0,29.0,66,-99.99,,,-99.99,,2013-01-22 12:32:00,
2013-01-22 07:42:00,23.0,12.0,29.96,NW,310,22.0,31.0,62,-99.99,,,-99.99,,2013-01-22 12:42:00,
2013-01-22 07:52:00,23.0,12.0,29.96,NW,310,22.0,31.0,62,-99.99,,,-99.99,,2013-01-22 12:52:00,
2013-01-22 08:02:00,23.0,12.0,29.96,NW,310,22.0,31.0,62,-99.99,,,-99.99,,2013-01-22 13:02:00,
2013-01-22 08:11:00,23.0,12.0,29.96,NW,310,22.0,31.0,62,-99.99,,,-99.99,,2013-01-22 13:11:00,
2013-01-22 08:30:00,22.0,8.0,30.00,NW,320,20.0,31.0,55,-99.99,,,-99.99,,2013-01-22 13:30:00,
2013-01-22 09:42:00,22.0,8.0,30.02,WNW,290,20.0,27.0,54,-99.99,,,-99.99,,2013-01-22 14:42:00,
2013-01-22 09:52:00,22.0,8.0,30.02,WNW,300,18.0,27.0,54,-99.99,,,-99.99,,2013-01-22 14:52:00,
2013-01-22 10:02:00,22.0,8.0,30.02,WNW,300,18.0,27.0,54,-99.99,,,-99.99,,2013-01-22 15:02:00,
2013-01-22 10:12:00,22.0,8.0,30.03,NW,310,18.0,29.0,54,-99.99,,,-99.99,,2013-01-22 15:12:00,
2013-01-22 10:22:00,22.0,8.0,30.03,NW,310,18.0,29.0,54,-99.99,,,-99.99,,2013-01-22 15:22:00,
2013-01-22 10:32:00,22.0,8.0,30.03,NW,310,18.0,29.0,54,-99.99,,,-99.99,,2013-01-22 15:32:00,
2013-01-22 10:42:00,22.0,9.0,30.03,WNW,290,20.0,29.0,58,-99.99,,,-99.99,,2013-01-22 15:42:00,
2013-01-22 10:52:00,22.0,9.0,30.03,WNW,290,20.0,29.0,58,-99.99,,,-99.99,,2013-01-22 15:52:00,
2013-01-22 11:02:00,22.0,9.0,30.03,WNW,290,20.0,29.0,58,-99.99,,,-99.99,,2013-01-22 16:02:00,
2013-01-22 11:12:00,22.0,11.0,30.03,West,270,20.0,27.0,61,-99.99,,,-99.99,,2013-01-22 16:12:00,
2013-01-22 11:22:00,22.0,11.0,30.03,West,270,20.0,27.0,61,-99.99,,,-99.99,,2013-01-22 16:22:00,
2013-01-22 11:32:00,23.0,12.0,30.03,WNW,290,18.0,27.0,63,-99.99,,,-99.99,,2013-01-22 16:32:00,
2013-01-22 11:42:00,21.0,12.0,30.04,WNW,300,22.0,29.0,68,-99.99,,,-99.99,,2013-01-22 16:42:00,
2013-01-22 11:52:00,21.0,12.0,30.04,WNW,300,22.0,29.0,68,-99.99,,,-99.99,,2013-01-22 16:52:00,
2013-01-22 12:11:00,22.0,10.0,30.03,WNW,290,20.0,29.0,59,-99.99,,,-99.99,,2013-01-22 17:11:00,
2013-01-22 12:22:00,22.0,10.0,30.03,WNW,290,20.0,29.0,59,-99.99,,,-99.99,,2013-01-22 17:22:00,
2013-01-22 12:32:00,23.0,10.0,30.02,WNW,300,20.0,31.0,55,-99.99,,,-99.99,,2013-01-22 17:32:00,
2013-01-22 12:42:00,23.0,10.0,30.02,WNW,300,20.0,31.0,55,-99.99,,,-99.99,,2013-01-22 17:42:00,
2013-01-22 12:53:00,23.0,10.0,30.01,WNW,300,22.0,29.0,56,-99.99,,,-99.99,,2013-01-22 17:53:00,
2013-01-22 13:02:00,23.0,10.0,30.01,WNW,300,22.0,29.0,56,-99.99,,,-99.99,,2013-01-22 18:02:00,
2013-01-22 13:11:00,22.0,7.0,30.01,WNW,290,20.0,31.0,50,-99.99,,,-99.99,,2013-01-22 18:11:00,
2013-01-22 13:22:00,22.0,7.0,30.01,WNW,290,20.0,31.0,50,-99.99,,,-99.99,,2013-01-22 18:22:00,
2013-01-22 13:33:00,22.0,7.0,30.01,WNW,290,20.0,31.0,50,-99.99,,,-99.99,,2013-01-22 18:33:00,
2013-01-22 13:42:00,23.0,8.0,30.01,NW,310,20.0,29.0,51,-99.99,,,-99.99,,2013-01-22 18:42:00,
2013-01-22 13:53:00,23.0,6.0,30.01,NW,310,20.0,27.0,48,-99.99,,,-99.99,,2013-01-22 18:53:00,
2013-01-22 14:00:00,23.0,5.0,30.01,WNW,290,18.0,27.0,44,-99.99,,,-99.99,,2013-01-22 19:00:00,
2013-01-22 14:02:00,23.0,6.0,30.01,NW,310,20.0,27.0,48,-99.99,,,-99.99,,2013-01-22 19:02:00,
2013-01-22 14:12:00,23.0,4.0,30.01,West,280,20.0,27.0,42,-99.99,,,-99.99,,2013-01-22 19:12:00,
2013-01-22 14:22:00,23.0,4.0,30.01,West,280,20.0,27.0,42,-99.99,,,-99.99,,2013-01-22 19:22:00,
2013-01-22 14:30:00,24.0,5.0,30.02,WNW,300,22.0,34.0,43,-99.99,,,-99.99,,2013-01-22 19:30:00,
2013-01-22 14:32:00,23.0,4.0,30.01,West,280,20.0,27.0,42,-99.99,,,-99.99,,2013-01-22 19:32:00,
2013-01-22 14:42:00,23.0,5.0,30.01,WNW,290,18.0,27.0,44,-99.99,,,-99.99,,2013-01-22 19:42:00,
2013-01-22 14:53:00,23.0,5.0,30.01,WNW,290,18.0,27.0,44,-99.99,,,-99.99,,2013-01-22 19:53:00,
2013-01-22 15:12:00,24.0,5.0,30.02,WNW,300,22.0,34.0,43,-99.99,,,-99.99,,2013-01-22 20:12:00,
2013-01-22 15:22:00,24.0,5.0,30.02,WNW,300,22.0,34.0,43,-99.99,,,-99.99,,2013-01-22 20:22:00,
2013-01-22 15:42:00,24.0,5.0,30.03,WNW,290,22.0,36.0,44,-99.99,,,-99.99,,2013-01-22 20:42:00,
2013-01-22 15:52:00,24.0,5.0,30.03,WNW,290,22.0,36.0,44,-99.99,,,-99.99,,2013-01-22 20:52:00,
2013-01-22 16:33:00,24.0,5.0,30.03,WNW,300,22.0,34.0,45,-99.99,,,-99.99,,2013-01-22 21:33:00,
2013-01-22 16:52:00,23.0,5.0,30.05,WNW,290,20.0,31.0,45,-99.99,,,-99.99,,2013-01-22 21:52:00,
2013-01-22 17:02:00,23.0,5.0,30.05,WNW,290,20.0,31.0,45,-99.99,,,-99.99,,2013-01-22 22:02:00,
2013-01-22 17:12:00,23.0,5.0,30.05,WNW,290,20.0,31.0,45,-99.99,,,-99.99,,2013-01-22 22:12:00,
2013-01-22 17:32:00,22.0,4.0,30.07,WNW,300,25.0,36.0,46,-99.99,,,-99.99,,2013-01-22 22:32:00,
2013-01-22 17:42:00,21.0,5.0,30.08,West,280,22.0,29.0,47,-99.99,,,-99.99,,2013-01-22 22:42:00,
2013-01-22 17:52:00,21.0,5.0,30.09,WNW,290,25.0,36.0,49,-99.99,,,-99.99,,2013-01-22 22:52:00,
2013-01-22 18:02:00,21.0,5.0,30.09,WNW,290,25.0,36.0,49,-99.99,,,-99.99,,2013-01-22 23:02:00,
2013-01-22 18:22:00,20.0,6.0,30.11,WNW,290,22.0,29.0,52,-99.99,,,-99.99,,2013-01-22 23:22:00,
2013-01-22 18:42:00,20.0,8.0,30.12,West,280,20.0,29.0,60,-99.99,,,-99.99,,2013-01-22 23:42:00,
2013-01-22 18:52:00,20.0,7.0,30.13,West,280,20.0,29.0,56,-99.99,,,-99.99,,2013-01-22 23:52:00,
2013-01-22 19:02:00,20.0,7.0,30.13,West,280,20.0,29.0,56,-99.99,,,-99.99,,2013-01-23 00:02:00,
2013-01-22 19:12:00,19.0,6.0,30.13,WNW,290,18.0,25.0,55,-99.99,,,-99.99,,2013-01-23 00:12:00,
2013-01-22 19:22:00,19.0,6.0,30.13,WNW,290,18.0,25.0,55,-99.99,,,-99.99,,2013-01-23 00:22:00,
2013-01-22 19:32:00,20.0,6.0,30.14,WNW,290,18.0,27.0,54,-99.99,,,-99.99,,2013-01-23 00:32:00,
2013-01-22 19:42:00,20.0,6.0,30.14,WNW,290,16.0,25.0,53,-99.99,,,-99.99,,2013-01-23 00:42:00,
2013-01-22 19:52:00,19.0,6.0,30.15,WNW,290,16.0,25.0,54,-99.99,,,-99.99,,2013-01-23 00:52:00,
2013-01-22 20:02:00,19.0,6.0,30.15,WNW,290,16.0,25.0,54,-99.99,,,-99.99,,2013-01-23 01:02:00,
2013-01-22 20:12:00,19.0,6.0,30.15,WNW,290,16.0,25.0,54,-99.99,,,-99.99,,2013-01-23 01:12:00,
2013-01-22 20:22:00,19.0,6.0,30.15,WNW,290,16.0,25.0,54,-99.99,,,-99.99,,2013-01-23 01:22:00,
2013-01-22 20:32:00,19.0,7.0,30.16,WNW,300,16.0,27.0,57,-99.99,,,-99.99,,2013-01-23 01:32:00,
2013-01-22 20:52:00,19.0,6.0,30.16,WNW,300,20.0,34.0,56,-99.99,,,-99.99,,2013-01-23 01:52:00,
2013-01-22 21:02:00,19.0,6.0,30.16,WNW,300,20.0,34.0,56,-99.99,,,-99.99,,2013-01-23 02:02:00,
2013-01-22 21:22:00,19.0,6.0,30.16,WNW,300,20.0,34.0,56,-99.99,,,-99.99,,2013-01-23 02:22:00,
2013-01-22 21:32:00,19.0,6.0,30.17,NW,310,18.0,27.0,55,-99.99,,,-99.99,,2013-01-23 02:32:00,
2013-01-22 21:42:00,18.0,5.0,30.17,NW,310,18.0,25.0,55,-99.99,,,-99.99,,2013-01-23 02:42:00,
2013-01-22 21:52:00,18.0,5.0,30.18,NW,310,18.0,25.0,57,-99.99,,,-99.99,,2013-01-23 02:52:00,
2013-01-22 22:02:00,18.0,5.0,30.18,NW,310,18.0,25.0,57,-99.99,,,-99.99,,2013-01-23 03:02:00,
2013-01-22 22:12:00,18.0,5.0,30.18,NW,310,18.0,25.0,57,-99.99,,,-99.99,,2013-01-23 03:12:00,
2013-01-22 22:21:00,18.0,5.0,30.18,NW,310,18.0,25.0,57,-99.99,,,-99.99,,2013-01-23 03:21:00,
2013-01-22 22:32:00,18.0,6.0,30.19,NW,310,22.0,31.0,59,-99.99,,,-99.99,,2013-01-23 03:32:00,
2013-01-22 22:42:00,18.0,5.0,30.19,West,280,25.0,38.0,57,-99.99,,,-99.99,,2013-01-23 03:42:00,
2013-01-22 22:52:00,18.0,5.0,30.19,West,280,25.0,38.0,57,-99.99,,,-99.99,,2013-01-23 03:52:00,
2013-01-22 23:02:00,17.0,5.0,30.19,West,280,25.0,34.0,57,-99.99,,,-99.99,,2013-01-23 04:02:00,
2013-01-22 23:11:00,17.0,5.0,30.19,West,280,25.0,34.0,57,-99.99,,,-99.99,,2013-01-23 04:11:00,
2013-01-22 23:22:00,17.0,5.0,30.19,West,280,25.0,34.0,57,-99.99,,,-99.99,,2013-01-23 04:22:00,
2013-01-22 23:32:00,17.0,4.0,30.20,WNW,290,20.0,36.0,55,-99.99,,,-99.99,,2013-01-23 04:32:00,
2013-01-22 23:42:00,17.0,4.0,30.20,WNW,290,22.0,34.0,56,-99.99,,,-99.99,,2013-01-23 04:42:00,
2013-01-22 23:52:00,17.0,4.0,30.20,WNW,290,22.0,34.0,56,-99.99,,,-99.99,,2013-01-23 04:52:00,